Regional Weather Roundup
Issued by NWS Charleston, WV

Home | Current Version | Previous Version | Graphics & Text | Print | Product List | Glossary On
Versions: 1 2 3 4 5 6 7 8 9 10 11 12 13 14 15 16 17 18 19 20 21 22 23 24 25 26 27 28 29 30 31 32 33 34 35 36 37 38 39 40 41 42 43 44 45 46 47 48 49 50
000
ASUS41 KRLX 011610
RWRRLX
West Virginia Regional Weather Roundup
National Weather Service Charleston WV
1200 PM EDT MON JUN 01 2015

Note: "fair" indicates few or no clouds below 12,000 feet with no
significant weather and/or obstructions to visibility.

WVZ003-011700-
Northern Panhandle of West Virginia

CITY           SKY/WX    TMP DP  RH WIND       PRES   REMARKS
WHEELING       CLOUDY    52  46  80 N6        30.14S
$$

WVZ009-011700-
Northwest West Virginia

CITY           SKY/WX    TMP DP  RH WIND       PRES   REMARKS
PARKERSBURG    CLOUDY    59  50  72 N7        30.15F
$$

WVZ006-011700-
Western West Virginia

CITY           SKY/WX    TMP DP  RH WIND       PRES   REMARKS
HUNTINGTON     CLOUDY    61  54  77 NE8       30.10S
$$

WVZ015-011700-
West Central West Virginia

CITY           SKY/WX    TMP DP  RH WIND       PRES   REMARKS
CHARLESTON     CLOUDY    64  57  78 NE6       30.09F
$$

WVZ022-031-011700-
North Central West Virginia

CITY           SKY/WX    TMP DP  RH WIND       PRES   REMARKS
CLARKSBURG     CLOUDY    58  56  93 NW5       30.12S
MORGANTOWN     CLOUDY    55  50  83 VRB5      30.14S HAZE
$$

WVZ025-035-042-045-011700-
Southern West Virginia

CITY           SKY/WX    TMP DP  RH WIND       PRES   REMARKS
BECKLEY        PTSUNNY   74  60  61 VRB3      30.12S
LOGAN          CLOUDY    66  64  94 CALM      30.06S FOG
BLUEFIELD      CLOUDY    76  60  57 E3        30.14S
LEWISBURG      MOSUNNY   75  64  68 SW5       30.12S
$$

WVZ047-011700-
Northern Mountains of West Virginia

CITY           SKY/WX    TMP DP  RH WIND       PRES   REMARKS
ELKINS         CLOUDY    73  62  68 VRB5      30.10F
$$

WVZ052-011700-
Eastern Panhandle of West Virginia

CITY           SKY/WX    TMP DP  RH WIND       PRES   REMARKS
MARTINSBURG    PTSUNNY   81  64  56 W9        30.03S
PETERSBURG     PTSUNNY   81  64  55 SE3       30.05S
$$


USA.gov is the U.S. government's official web portal to all federal, state and local government web resources and services.